Weather Roundup
Issued by NWS

Home | Current Version | Previous Version | Text Only | Print | Product List | Glossary On
Versions: 1 2 3 4 5 6 7 8 9 10 11 12 13 14 15 16 17 18 19 20 21 22 23 24 25 26 27 28 29 30 31 32 33 34 35 36 37 38 39 40 41 42 43 44 45 46 47 48 49 50
000
NZUS93 KARX 270810
HRRWXR

CURRENT HOURLY OBSERVATIONS ACROSS
MUCH OF THE UPPER MISSISSIPPI VALLEY
NATIONAL WEATHER SERVICE LA CROSSE WI
300 AM CDT FRI MAR 27 2015


...SOUTHEAST MINNESOTA...


CITY           SKY/WX    TMP DP  RH WIND       PRES   REMARKS
ROCHESTER      CLEAR     18   6  59 N6        30.18R WCI  10
ROCHESTER/MAYO FAIR      22  11  64 NW3       30.19S
WINONA         CLEAR     27  12  54 E6        30.22S WCI  20
AUSTIN         CLEAR     19  10  68 N3        30.18S
ALBERT LEA     CLEAR     19  16  86 N6        30.19S WCI  11
DODGE CENTER   PTCLDY    18   9  68 N6        30.18S WCI   9
PRESTON        CLEAR     19   8  63 N5        30.17S WCI  12
OWATONNA       CLEAR     16  10  79 NW3       30.20S
FARIBAULT      CLEAR     12   9  85 CALM      30.22R
$$

...ELSEWHERE IN MINNESOTA...


CITY           SKY/WX    TMP DP  RH WIND       PRES   REMARKS
MINNEAPOLIS    CLEAR     23   5  46 N8        30.25R WCI  14
INTNL FALLS    CLEAR      7   3  84 CALM      30.26S
DULUTH         CLEAR     14   2  58 N5        30.21S WCI   6
RED WING       CLEAR     19   7  58 CALM      30.22S
REDWOOD FALLS  CLEAR     22  11  62 N6        30.27R WCI  14
MANKATO        CLEAR     18   9  68 N7        30.23R WCI   8
WORTHINGTON    CLEAR     18  10  73 N7        30.24S WCI   8
FAIRMONT       CLEAR     21  14  73 NW8       30.21S WCI  12
$$

...SOUTHWEST WISCONSIN...


CITY           SKY/WX    TMP DP  RH WIND       PRES   REMARKS
LA CROSSE      CLEAR     23   8  52 NE7       30.21R WCI  15
PRAIRIE DU CHI CLEAR     27  11  50 NE12      30.18R WCI  17
BOSCOBEL       CLEAR     25   8  48 N10       30.18S WCI  15
LONE ROCK      CLEAR     22   9  57 NE9       30.18R WCI  12
PLATTEVILLE    PTCLDY    25  15  65 N15       30.13R WCI  13
FORT MC COY    CLEAR     16   9  74 CALM      30.21R
CAMP DOUGLAS   CLEAR     15   9  78 NW3       30.18S
VIROQUA        FAIR      20   8  61 NE12      30.16R WCI   8
WIS DELLS      CLEAR     19   6  55 N8        30.16R WCI   9
$$

...ELSEWHERE IN WISCONSIN...


CITY           SKY/WX    TMP DP  RH WIND       PRES   REMARKS
MILWAUKEE      MOCLDY    25  17  72 N10       30.10S WCI  15
MADISON        CLEAR     21   7  54 N8        30.14R WCI  11
GREEN BAY      CLEAR     20   9  62 N8        30.16S WCI  10
EAU CLAIRE     CLEAR     15   7  70 CALM      30.20S
BLACK RVR FLS  FAIR      13   7  75 CALM      30.19F
MEDFORD        MOCLDY    10   5  82 CALM      30.14S
WAUSAU         CLOUDY    16   6  65 NW7       30.13S WCI   6
WIS RAPIDS     CLEAR     15   5  64 CALM      30.18S
MARSHFIELD     CLEAR     13   7  77 NW5       30.15S WCI   5
RICE LAKE      CLEAR     18   9  67 N6        30.22S WCI  10
$$

...NORTHEAST IOWA...


CITY           SKY/WX    TMP DP  RH WIND       PRES   REMARKS
DECORAH        CLEAR     25  12  58 NE7       30.15R WCI  17
MASON CITY     CLEAR     22  18  85 NW8       30.20R WCI  12
CHARLES CITY   CLEAR     25  18  74 N9        30.18R WCI  15
OELWEIN        CLEAR     25  19  80 N9        30.15S WCI  15
$$

...ELSEWHERE IN IOWA...


CITY           SKY/WX    TMP DP  RH WIND       PRES   REMARKS
DES MOINES     CLOUDY    32  19  58 N13       30.19S WCI  22
IOWA CITY      CLOUDY    30  21  69 NW7       30.16S WCI  23
FORT DODGE     CLEAR     25  16  68 N5        30.21S WCI  19
$$

...NORTHERN ILLINOIS...


CITY           SKY/WX    TMP DP  RH WIND       PRES   REMARKS
CHICAGO-OHARE  FLURRIES  29  24  82 N10       30.06S WCI  20
CHICAGO-MIDWAY FLURRIES  31  25  78 N10       30.07S WCI  22
MOLINE         MOCLDY    31  21  66 N8        30.11S WCI  23
ROCKFORD       MOCLDY    27  14  58 N10       30.12S WCI  17
PEORIA         CLEAR     30  21  69 N6        30.09S WCI  24
$$

NOTE: "FAIR" INDICATES FEW OR NO CLOUDS BELOW 12,000 FEET WITH NO
SIGNIFICANT WEATHER AND/OR OBSTRUCTIONS TO VISIBILITY. WIND
SPEEDS ARE IN MILES-PER-HOUR.



USA.gov is the U.S. government's official web portal to all federal, state and local government web resources and services.